Location: Beulah
(33.1426°N, 83.0557°W)
Time: 16:50:17
(UTC+00:00)

Hubble Space Telescope - Visible Passes

Search period start: 02 December 2021 00:00
Search period end: 12 December 2021 00:00
Orbit: 534 x 538 km, 28.5° (Epoch: 02 December)

Date Brightness Start Highest point End Pass type
(mag) Time Alt. Az. Time Alt. Az. Time Alt. Az.
02 Dec 2.0 10:14:56 33° SSE 10:14:56 33° SSE 10:18:02 10° ESE visible
02 Dec 2.9 11:52:14 10° WSW 11:54:57 17° SSW 11:57:39 10° SSE visible
03 Dec 2.6 10:04:28 25° SSE 10:04:28 25° SSE 10:06:44 10° SE visible
03 Dec 3.1 11:41:32 10° SW 11:43:42 14° SSW 11:45:52 10° S visible
04 Dec 3.2 09:54:01 18° SSE 09:54:01 18° SSE 09:55:25 10° SE visible
04 Dec 3.2 11:31:13 10° SW 11:32:26 11° SSW 11:33:39 10° S visible
05 Dec 3.7 09:43:34 12° SE 09:43:34 12° SE 09:44:01 10° SE visible
